Regional Weather Roundup
Issued by NWS Northern Indiana

Home | Current Version | Previous Version | Text Only | Print | Product List | Glossary Off
Versions: 1 2 3 4 5 6 7 8 9 10 11 12 13 14 15 16 17 18 19 20 21 22 23 24 25 26 27 28 29 30 31 32 33 34 35 36 37 38 39 40 41 42 43 44 45 46 47 48 49 50

000
ASUS43 KIWX 211200
RWRIWX

KIWX WEATHER ROUNDUP
NATIONAL WEATHER SERVICE NORTHERN INDIANA
700 AM EST SAT JAN 21 2017

NOTE: "FAIR" INDICATES FEW OR NO CLOUDS BELOW 12,000 FEET WITH NO
SIGNIFICANT WEATHER AND/OR OBSTRUCTIONS TO VISIBILITY.

* THESE STATIONS ARE NOT UNDER NWS QUALITY CONTROL. THEY ALSO MAY NOT
  REPORT WEATHER SUCH AS PRECIPITATION OR FOG.

INZ001>027-211300-
NORTHERN INDIANA

CITY           SKY/WX    TMP DP  RH WIND       PRES   REMARKS
GARY*          CLOUDY    50  48  93 S8        29.56F FOG
KNOX*          CLEAR     46  39  76 S8        29.59F
SOUTH BEND     CLOUDY    48  47  96 SE9       29.61F
6HR MIN TEMP:  46; 6HR MAX TEMP:  49; 6HR PCP: TRACE;

GOSHEN         PTCLDY    46  43  89 SE7       29.63S FOG
6HR MIN TEMP:  45; 6HR MAX TEMP:  50;

FORT WAYNE     PTCLDY    47  43  86 SE6       29.66S
6HR MIN TEMP:  47; 6HR MAX TEMP:  51;


$$
INZ028>050-211300-
CENTRAL INDIANA

CITY           SKY/WX    TMP DP  RH WIND       PRES   REMARKS
LAFAYETTE      CLEAR     49  49 100 S6        29.61F
6HR MIN TEMP:  49; 6HR MAX TEMP:  53;

KOKOMO*        CLEAR     47  46  97 S9        29.64F
6HR MIN TEMP:  47; 6HR MAX TEMP:  52;

MUNCIE*        PTCLDY    52  48  86 S8        29.66S
6HR MIN TEMP:  52; 6HR MAX TEMP:  54;

INDIANAPOLIS   PTCLDY    48  47  96 SE7       29.66R
6HR MIN TEMP:  47; 6HR MAX TEMP:  52;


$$
MIZ043>046-050>051-056>058-064>065-071>073-077>080-211300-
SOUTHWEST LOWER MICHIGAN

CITY           SKY/WX    TMP DP  RH WIND       PRES   REMARKS
BATTLE CREEK   CLEAR     46  45  96 S7        29.64R FOG
6HR MIN TEMP:  44; 6HR MAX TEMP:  48;

BENTON HARBOR  MOCLDY    48  46  93 SE8       29.59S FOG
6HR MIN TEMP:  47; 6HR MAX TEMP:  50;

COLDWATER*     CLOUDY    47  47 100 SE8       29.65R FOG
6HR MIN TEMP:  45; 6HR MAX TEMP:  47;

HILLSDALE*     CLOUDY    45  43  93 SE6       29.66S FOG
HOLLAND        MOCLDY    45  43  93 SE6       29.60S
6HR MIN TEMP:  40; 6HR MAX TEMP:  45; 6HR PCP:  0.02;

GRAND RAPIDS   FOG       40  38  93 E7        29.62S VSB 3/4
6HR MIN TEMP:  37; 6HR MAX TEMP:  40; 6HR PCP: TRACE;

KALAMAZOO      PTCLDY    47  44  90 S6        29.64S FOG
6HR MIN TEMP:  45; 6HR MAX TEMP:  48; 6HR PCP: TRACE;

STURGIS*       CLEAR     46  45  99 SE6       29.63S FOG
6HR MIN TEMP:  45; 6HR MAX TEMP:  48;

THREE RIVERS*  MOCLDY    45  45  99 S3        29.64R FOG
6HR MIN TEMP:  44; 6HR MAX TEMP:  48;


$$
OHZ001>008-015>018-024>025-211300-
NORTHWEST OHIO

CITY           SKY/WX    TMP DP  RH WIND       PRES   REMARKS
DEFIANCE       MOCLDY    48  45  89 S6        29.67S
6HR MIN TEMP:  47; 6HR MAX TEMP:  49;

FINDLAY        PTCLDY    48  44  86 SE8       29.69R
6HR MIN TEMP:  48; 6HR MAX TEMP:  51;

TOLEDO EXPRESS CLOUDY    44  44 100 CALM      29.69S
6HR MIN TEMP:  44; 6HR MAX TEMP:  47;

TOLEDO METCALF MOCLDY    47  46  97 S7        29.70S
6HR MIN TEMP:  46; 6HR MAX TEMP:  50;

LIMA           PTCLDY    47  46  97 SE10      29.68F
6HR MIN TEMP:  47; 6HR MAX TEMP:  51;


$$
AND FOR LAKE MICHIGAN COASTAL AND OPEN LAKE BUOY OBSERVATIONS

STATION/POSITION TEMP    WIND        PRES    VSBY  WAVE
                 AIR SEA DIR/SP/G                  HT/PER
                 (F)     (DEG/KT/KT) (MB)    (MI)  (FT/S)
CALUMET HARBOR    49     150/  8/ 13 1000.2F
BURNS HARBOR      51     160/ 10/ 17 1002.0S

$$
&&



USA.gov is the U.S. government's official web portal to all federal, state and local government web resources and services.